FW4287 Weather Reports


Display with metric or nautical units.
time (UTC)temp
F
wind
direction
speed
MPH
gust
MPH
rain 1hr
in
rain 24hr
in
rain mn
in
humidity
%
barometer
mb
20260505164530 61 359 6.0 10.0 0.00 0.00 0.00 71 1015.1
20260505163107 62 43 5.0 11.0 0.00 0.00 0.00 70 1015.0
20260505160108 62 44 3.0 8.0 0.00 0.00 0.00 68 1015.0
20260505153029 60 46 4.0 7.0 0.00 0.00 0.00 72 1015.0
20260505151607 61 28 2.0 5.0 0.00 0.00 0.00 69 1014.9
20260505150146 60 126 1.0 4.0 0.00 0.00 0.00 69 1014.8
20260505124530 56 171 5.0 10.0 0.00 0.00 0.00 78 1014.0
20260505123031 56 170 6.0 15.0 0.00 0.00 0.00 78 1013.9
20260505121605 56 177 6.0 12.0 0.00 0.00 0.00 79 1013.9
20260505120147 56 169 6.0 11.0 0.00 0.00 0.00 79 1013.9
20260505114529 56 171 6.0 14.0 0.00 0.00 0.00 79 1013.8
20260505113032 57 172 6.0 11.0 0.00 0.00 0.00 78 1013.8
20260505111531 57 170 6.0 14.0 0.00 0.00 0.00 78 1013.7
20260505101531 58 182 6.0 13.0 0.00 0.00 0.00 77 1013.3
20260505100031 58 177 7.0 17.0 0.00 0.00 0.00 76 1013.3
20260505094530 59 182 6.0 12.0 0.00 0.00 0.00 76 1013.1
20260505093032 59 183 7.0 13.0 0.00 0.00 0.00 76 1013.2
20260505091529 59 187 6.0 16.0 0.00 0.00 0.00 75 1013.0
20260505090028 59 182 7.0 14.0 0.00 0.00 0.00 75 1012.9
20260505080030 61 185 8.0 13.0 0.00 0.00 0.00 71 1012.7
20260505074531 62 186 8.0 14.0 0.00 0.00 0.00 71 1012.7
20260505073033 62 178 9.0 16.0 0.00 0.00 0.00 71 1012.7
20260505064605 62 181 6.0 11.0 0.00 0.00 0.00 71 1012.4
20260505061533 62 185 7.0 11.0 0.00 0.00 0.00 69 1012.5
20260505060029 62 171 8.0 14.0 0.00 0.00 0.00 68 1012.5
20260505054530 62 181 7.0 13.0 0.00 0.00 0.00 67 1012.5
20260505053031 63 180 7.0 14.0 0.00 0.00 0.00 65 1012.4
20260505051535 63 189 6.0 11.0 0.00 0.00 0.00 64 1012.3
20260505050107 63 183 8.0 15.0 0.00 0.00 0.00 62 1012.2
20260505041535 64 189 8.0 14.0 0.00 0.00 0.00 56 1011.8
20260505033030 66 183 8.0 13.0 0.00 0.00 0.00 52 1011.1
20260505030032 68 185 8.0 16.0 0.00 0.00 0.00 51 1010.6
20260505023107 70 168 10.0 16.0 0.00 0.00 0.00 49 1010.6
20260505021530 71 168 8.0 15.0 0.00 0.00 0.00 48 1010.5
20260505020106 72 165 8.0 15.0 0.00 0.00 0.00 46 1010.5
20260505014532 73 175 7.0 12.0 0.00 0.00 0.00 45 1010.3
20260505011531 74 199 8.0 17.0 0.00 0.00 0.00 41 1010.1
20260505010034 75 190 9.0 18.0 0.00 0.00 0.00 40 1010.1
20260505004530 76 213 9.0 16.0 0.00 0.00 0.00 38 1010.0
20260505003031 76 225 9.0 18.0 0.00 0.00 0.00 37 1010.0
20260505001537 77 228 10.0 17.0 0.00 0.00 0.00 37 1010.0
20260505000029 78 208 10.0 19.0 0.00 0.00 0.00 37 1010.0
20260504234604 78 224 10.0 17.0 0.00 0.00 0.00 36 1009.9
20260504233032 78 217 10.0 17.0 0.00 0.00 0.00 37 1009.9
20260504231604 79 207 10.0 19.0 0.00 0.00 0.00 37 1009.9
20260504224527 80 239 8.0 19.0 0.00 0.00 0.00 38 1010.0
20260504223147 79 299 2.0 10.0 0.00 0.00 0.00 41 1010.2
20260504221645 77 350 4.0 12.0 0.00 0.00 0.00 44 1010.2
20260504214526 76 4 7.0 12.0 0.00 0.00 0.00 45 1010.6
20260504213116 75 359 7.0 11.0 0.00 0.00 0.00 46 1010.7
20260504211646 75 1 6.0 11.0 0.00 0.00 0.00 46 1010.8
20260504204530 75 2 7.0 14.0 0.00 0.00 0.00 45 1011.1
20260504203032 75 354 7.0 15.0 0.00 0.00 0.00 46 1011.1
20260504201645 74 6 7.0 13.0 0.00 0.00 0.00 47 1011.3
20260504200029 74 3 8.0 13.0 0.00 0.00 0.00 48 1011.4
20260504194531 73 6 7.0 13.0 0.00 0.00 0.00 48 1011.4
20260504191531 72 359 8.0 12.0 0.00 0.00 0.00 50 1011.6
20260504190032 71 357 8.0 12.0 0.00 0.00 0.00 52 1011.7
20260504184644 71 348 8.0 12.0 0.00 0.00 0.00 54 1011.7
20260504183031 69 352 8.0 12.0 0.00 0.00 0.00 55 1011.7
20260504181529 69 354 8.0 12.0 0.00 0.00 0.00 56 1011.8
20260504180032 69 359 7.0 10.0 0.00 0.00 0.00 57 1011.8
20260504174531 69 3 6.0 10.0 0.00 0.00 0.00 58 1011.7
20260504171529 68 351 6.0 9.0 0.00 0.00 0.00 59 1011.8